Wetterdaten: Montag, 30.10.2017
Datum Zeit Temp. A. Aussen2m Feuchte A. Feuchte 2 Luftdruck Regen Wind Richtung Richtung Sonnenschein
30.10.2017 00:00 6,1 C 6,2 C 89 % 86 % 1019,9 hPa 0,0 l/m 9,1 km/h (2 Bft) W-NW 285 0 min
30.10.2017 00:05 6,2 C 6,2 C 89 % 87 % 1019,9 hPa 0,0 l/m 9,7 km/h (2 Bft) W 265 0 min
30.10.2017 00:10 6,3 C 6,2 C 89 % 87 % 1019,9 hPa 0,0 l/m 11,5 km/h (2 Bft) W 265 0 min
30.10.2017 00:15 6,4 C 6,3 C 88 % 86 % 1019,9 hPa 0,0 l/m 14,5 km/h (3 Bft) W 275 0 min
30.10.2017 00:20 6,4 C 6,3 C 88 % 86 % 1019,9 hPa 0,0 l/m 10,9 km/h (2 Bft) W-SW 240 0 min
30.10.2017 00:25 6,4 C 6,4 C 88 % 86 % 1019,9 hPa 0,0 l/m 9,7 km/h (2 Bft) W 265 0 min
30.10.2017 00:30 6,4 C 6,4 C 88 % 86 % 1019,9 hPa 0,0 l/m 12,1 km/h (2 Bft) NW 305 0 min
30.10.2017 00:35 6,5 C 6,4 C 88 % 86 % 1019,9 hPa 0,0 l/m 12,7 km/h (3 Bft) W 275 0 min
30.10.2017 00:40 6,5 C 6,4 C 88 % 86 % 1019,9 hPa 0,0 l/m 10,9 km/h (2 Bft) W-NW 290 0 min
30.10.2017 00:45 6,4 C 6,4 C 88 % 86 % 1019,9 hPa 0,0 l/m 13,3 km/h (3 Bft) W-SW 255 0 min
30.10.2017 00:50 6,4 C 6,5 C 88 % 86 % 1019,9 hPa 0,0 l/m 13,9 km/h (3 Bft) NW 310 0 min
30.10.2017 00:55 6,4 C 6,4 C 88 % 86 % 1019,9 hPa 0,0 l/m 10,9 km/h (2 Bft) W-NW 285 0 min
30.10.2017 01:00 6,4 C 6,4 C 88 % 86 % 1019,9 hPa 0,0 l/m 12,1 km/h (2 Bft) W 270 0 min
30.10.2017 01:05 6,3 C 6,4 C 89 % 86 % 1019,9 hPa 0,0 l/m 9,1 km/h (2 Bft) W-SW 245 0 min
30.10.2017 01:10 6,3 C 6,3 C 89 % 86 % 1019,9 hPa 0,0 l/m 9,7 km/h (2 Bft) W 275 0 min
30.10.2017 01:15 6,3 C 6,3 C 89 % 86 % 1019,9 hPa 0,0 l/m 8,5 km/h (2 Bft) N-NW 330 0 min
30.10.2017 01:20 6,3 C 6,2 C 89 % 87 % 1019,9 hPa 0,0 l/m 9,7 km/h (2 Bft) W 275 0 min
30.10.2017 01:25 6,1 C 6,2 C 90 % 87 % 1019,9 hPa 0,0 l/m 8,5 km/h (2 Bft) W 280 0 min
30.10.2017 01:30 6,1 C 6,1 C 90 % 87 % 1019,9 hPa 0,0 l/m 9,1 km/h (2 Bft) SW 215 0 min
30.10.2017 01:35 6,0 C 6,1 C 91 % 88 % 1019,9 hPa 0,0 l/m 7,3 km/h (2 Bft) W 260 0 min
30.10.2017 01:40 6,1 C 6,0 C 91 % 88 % 1020,9 hPa 0,0 l/m 7,9 km/h (2 Bft) W 265 0 min
30.10.2017 01:45 6,0 C 6,1 C 91 % 88 % 1020,9 hPa 0,0 l/m 6,1 km/h (2 Bft) W 280 0 min
30.10.2017 01:50 6,1 C 6,1 C 91 % 88 % 1020,9 hPa 0,0 l/m 6,1 km/h (2 Bft) W 275 0 min
30.10.2017 01:55 6,1 C 6,1 C 90 % 88 % 1020,9 hPa 0,0 l/m 5,4 km/h (2 Bft) W-NW 285 0 min
30.10.2017 02:00 6,0 C 6,1 C 91 % 88 % 1020,9 hPa 0,0 l/m 6,1 km/h (2 Bft) S-SW 210 0 min
30.10.2017 02:05 6,0 C 6,0 C 91 % 88 % 1020,9 hPa 0,0 l/m 6,7 km/h (2 Bft) W-SW 255 0 min
30.10.2017 02:10 6,0 C 6,0 C 91 % 88 % 1020,9 hPa 0,0 l/m 6,1 km/h (2 Bft) W 275 0 min
30.10.2017 02:15 5,9 C 5,9 C 91 % 88 % 1020,9 hPa 0,0 l/m 5,4 km/h (2 Bft) W 270 0 min
30.10.2017 02:20 6,0 C 5,8 C 91 % 88 % 1020,9 hPa 0,0 l/m 7,9 km/h (2 Bft) W 270 0 min
30.10.2017 02:25 5,8 C 5,8 C 91 % 88 % 1020,9 hPa 0,0 l/m 4,8 km/h (1 Bft) W 270 0 min
30.10.2017 02:30 5,7 C 5,7 C 91 % 88 % 1020,9 hPa 0,0 l/m 4,2 km/h (1 Bft) W 275 0 min
30.10.2017 02:35 5,6 C 5,6 C 92 % 88 % 1020,9 hPa 0,0 l/m 4,8 km/h (1 Bft) W 275 0 min
30.10.2017 02:40 5,6 C 5,6 C 92 % 88 % 1020,9 hPa 0,0 l/m 5,4 km/h (2 Bft) W-NW 285 0 min
30.10.2017 02:45 5,6 C 5,5 C 91 % 88 % 1020,9 hPa 0,0 l/m 5,4 km/h (2 Bft) W 280 0 min
30.10.2017 02:50 5,4 C 5,4 C 92 % 88 % 1020,9 hPa 0,0 l/m 4,8 km/h (1 Bft) W 265 0 min
30.10.2017 02:55 5,4 C 5,3 C 91 % 89 % 1020,9 hPa 0,0 l/m 5,4 km/h (2 Bft) W-SW 255 0 min
30.10.2017 03:00 5,4 C 5,3 C 91 % 89 % 1020,9 hPa 0,0 l/m 6,1 km/h (2 Bft) W 270 0 min
30.10.2017 03:05 5,4 C 5,3 C 91 % 89 % 1020,9 hPa 0,0 l/m 7,9 km/h (2 Bft) W 280 0 min
30.10.2017 03:10 5,4 C 5,3 C 91 % 89 % 1020,9 hPa 0,0 l/m 9,7 km/h (2 Bft) W 265 0 min
30.10.2017 03:15 5,5 C 5,4 C 91 % 89 % 1020,9 hPa 0,0 l/m 9,7 km/h (2 Bft) NW 320 0 min
30.10.2017 03:20 5,4 C 5,4 C 91 % 89 % 1020,9 hPa 0,0 l/m 7,3 km/h (2 Bft) W 265 0 min
30.10.2017 03:25 5,4 C 5,4 C 92 % 89 % 1019,9 hPa 0,0 l/m 9,7 km/h (2 Bft) W 260 0 min
30.10.2017 03:30 5,4 C 5,4 C 92 % 89 % 1019,9 hPa 0,0 l/m 10,9 km/h (2 Bft) W 270 0 min
30.10.2017 03:35 5,3 C 5,4 C 92 % 89 % 1019,9 hPa 0,0 l/m 7,9 km/h (2 Bft) W-SW 255 0 min
30.10.2017 03:40 5,3 C 5,4 C 92 % 89 % 1020,9 hPa 0,0 l/m 10,9 km/h (2 Bft) W 280 0 min
30.10.2017 03:45 5,4 C 5,3 C 92 % 89 % 1020,9 hPa 0,0 l/m 9,7 km/h (2 Bft) N-NW 340 0 min
30.10.2017 03:50 5,4 C 5,4 C 92 % 89 % 1020,9 hPa 0,0 l/m 8,5 km/h (2 Bft) W 260 0 min
30.10.2017 03:55 5,4 C 5,4 C 92 % 89 % 1020,9 hPa 0,0 l/m 8,5 km/h (2 Bft) W 265 0 min
30.10.2017 04:00 5,4 C 5,4 C 92 % 90 % 1020,9 hPa 0,0 l/m 12,1 km/h (2 Bft) W 265 0 min
30.10.2017 04:05 5,5 C 5,5 C 92 % 90 % 1020,9 hPa 0,0 l/m 8,5 km/h (2 Bft) W-SW 250 0 min
30.10.2017 04:10 5,6 C 5,6 C 92 % 90 % 1020,9 hPa 0,0 l/m 8,5 km/h (2 Bft) SW 235 0 min
30.10.2017 04:15 5,8 C 5,7 C 91 % 89 % 1020,9 hPa 0,0 l/m 12,7 km/h (3 Bft) W 280 0 min
30.10.2017 04:20 5,8 C 5,8 C 91 % 89 % 1020,9 hPa 0,0 l/m 9,7 km/h (2 Bft) W 265 0 min
30.10.2017 04:25 5,8 C 5,8 C 91 % 89 % 1020,9 hPa 0,0 l/m 9,7 km/h (2 Bft) W 265 0 min
30.10.2017 04:30 5,8 C 5,8 C 91 % 88 % 1020,9 hPa 0,0 l/m 11,5 km/h (2 Bft) W-SW 250 0 min
30.10.2017 04:35 5,8 C 5,8 C 90 % 88 % 1020,9 hPa 0,0 l/m 10,3 km/h (2 Bft) W-SW 245 0 min
30.10.2017 04:40 5,7 C 5,8 C 90 % 88 % 1020,9 hPa 0,0 l/m 6,7 km/h (2 Bft) W 280 0 min
30.10.2017 04:45 5,7 C 5,8 C 91 % 88 % 1020,9 hPa 0,0 l/m 6,1 km/h (2 Bft) SW 215 0 min
30.10.2017 04:50 5,6 C 5,7 C 91 % 88 % 1020,9 hPa 0,0 l/m 6,1 km/h (2 Bft) W-NW 300 0 min
30.10.2017 04:55 5,5 C 5,6 C 91 % 88 % 1021,9 hPa 0,0 l/m 5,4 km/h (2 Bft) SW 235 0 min
30.10.2017 05:00 5,5 C 5,6 C 91 % 88 % 1021,9 hPa 0,0 l/m 6,1 km/h (2 Bft) W-NW 290 0 min
30.10.2017 05:05 5,5 C 5,6 C 91 % 88 % 1021,9 hPa 0,0 l/m 8,5 km/h (2 Bft) W-NW 285 0 min
30.10.2017 05:10 5,5 C 5,5 C 91 % 88 % 1020,9 hPa 0,0 l/m 10,3 km/h (2 Bft) W-SW 250 0 min
30.10.2017 05:15 5,5 C 5,5 C 91 % 88 % 1020,9 hPa 0,0 l/m 7,9 km/h (2 Bft) W 280 0 min
30.10.2017 05:20 5,4 C 5,4 C 91 % 88 % 1020,9 hPa 0,0 l/m 3,6 km/h (1 Bft) W 275 0 min
30.10.2017 05:25 5,4 C 5,4 C 91 % 88 % 1021,9 hPa 0,0 l/m 6,1 km/h (2 Bft) W 280 0 min
30.10.2017 05:30 5,3 C 5,3 C 91 % 88 % 1021,9 hPa 0,0 l/m 7,9 km/h (2 Bft) W 265 0 min
30.10.2017 05:35 5,4 C 5,3 C 91 % 88 % 1021,9 hPa 0,0 l/m 6,7 km/h (2 Bft) W-NW 300 0 min
30.10.2017 05:40 5,3 C 5,3 C 91 % 88 % 1021,9 hPa 0,0 l/m 8,5 km/h (2 Bft) W-NW 295 0 min
30.10.2017 05:45 5,2 C 5,2 C 91 % 88 % 1021,9 hPa 0,0 l/m 4,8 km/h (1 Bft) W-NW 290 0 min
30.10.2017 05:50 5,2 C 5,3 C 91 % 88 % 1021,9 hPa 0,0 l/m 6,7 km/h (2 Bft) NW 315 0 min
30.10.2017 05:55 5,2 C 5,2 C 92 % 89 % 1022,9 hPa 0,0 l/m 6,7 km/h (2 Bft) W 260 0 min
30.10.2017 06:00 5,1 C 5,1 C 92 % 89 % 1022,9 hPa 0,0 l/m 6,7 km/h (2 Bft) NW 315 0 min
30.10.2017 06:05 5,1 C 5,2 C 92 % 89 % 1022,9 hPa 0,0 l/m 8,5 km/h (2 Bft) W 280 0 min
30.10.2017 06:10 5,1 C 5,1 C 92 % 89 % 1021,9 hPa 0,0 l/m 7,3 km/h (2 Bft) W 275 0 min
30.10.2017 06:15 5,1 C 5,1 C 92 % 89 % 1021,9 hPa 0,0 l/m 8,5 km/h (2 Bft) W 280 0 min
30.10.2017 06:20 5,0 C 5,1 C 93 % 89 % 1021,9 hPa 0,0 l/m 5,4 km/h (2 Bft) W-NW 300 0 min
30.10.2017 06:25 5,0 C 5,1 C 93 % 89 % 1021,9 hPa 0,0 l/m 4,2 km/h (1 Bft) W-NW 300 0 min
30.10.2017 06:30 5,0 C 5,0 C 93 % 89 % 1021,9 hPa 0,0 l/m 6,1 km/h (2 Bft) W-NW 300 0 min
30.10.2017 06:35 4,9 C 5,0 C 93 % 89 % 1021,9 hPa 0,0 l/m 6,1 km/h (2 Bft) W 270 0 min
30.10.2017 06:40 4,8 C 4,9 C 93 % 89 % 1021,9 hPa 0,0 l/m 6,1 km/h (2 Bft) S 185 0 min
30.10.2017 06:45 4,8 C 4,9 C 93 % 90 % 1021,9 hPa 0,0 l/m 6,7 km/h (2 Bft) S-SW 195 0 min
30.10.2017 06:50 4,8 C 4,9 C 93 % 90 % 1021,9 hPa 0,0 l/m 6,7 km/h (2 Bft) W 270 0 min
30.10.2017 06:55 4,8 C 4,9 C 93 % 90 % 1021,9 hPa 0,0 l/m 4,8 km/h (1 Bft) W-SW 250 0 min
30.10.2017 07:00 4,7 C 4,8 C 93 % 90 % 1021,9 hPa 0,0 l/m 4,8 km/h (1 Bft) W 280 0 min
30.10.2017 07:05 4,7 C 4,8 C 94 % 90 % 1021,9 hPa 0,0 l/m 4,8 km/h (1 Bft) W-NW 290 0 min
30.10.2017 07:10 4,6 C 4,7 C 94 % 90 % 1022,9 hPa 0,0 l/m 8,5 km/h (2 Bft) W 270 0 min
30.10.2017 07:15 4,7 C 4,7 C 94 % 91 % 1022,9 hPa 0,0 l/m 7,3 km/h (2 Bft) W 270 0 min
30.10.2017 07:20 4,6 C 4,7 C 94 % 90 % 1022,9 hPa 0,0 l/m 6,7 km/h (2 Bft) W 270 0 min
30.10.2017 07:25 4,6 C 4,7 C 94 % 91 % 1022,9 hPa 0,0 l/m 5,4 km/h (2 Bft) W-SW 245 0 min
30.10.2017 07:30 4,7 C 4,7 C 94 % 91 % 1022,9 hPa 0,0 l/m 5,4 km/h (2 Bft) W-NW 290 0 min
30.10.2017 07:35 4,8 C 4,8 C 94 % 91 % 1022,9 hPa 0,0 l/m 3,6 km/h (1 Bft) W-NW 285 0 min
30.10.2017 07:40 4,8 C 4,8 C 94 % 91 % 1022,9 hPa 0,0 l/m 5,4 km/h (2 Bft) W-NW 300 0 min
30.10.2017 07:45 4,8 C 4,9 C 94 % 91 % 1022,9 hPa 0,0 l/m 4,2 km/h (1 Bft) W 280 0 min
30.10.2017 07:50 4,9 C 4,9 C 94 % 91 % 1022,9 hPa 0,0 l/m 3,6 km/h (1 Bft) W 265 0 min
30.10.2017 07:55 5,0 C 5,0 C 93 % 91 % 1022,9 hPa 0,0 l/m 4,8 km/h (1 Bft) W 265 0 min
30.10.2017 08:00 5,0 C 5,0 C 93 % 90 % 1022,9 hPa 0,0 l/m 10,3 km/h (2 Bft) W 275 0 min
30.10.2017 08:05 5,0 C 5,0 C 93 % 90 % 1022,9 hPa 0,0 l/m 7,3 km/h (2 Bft) W 280 0 min
30.10.2017 08:10 5,0 C 5,0 C 93 % 90 % 1022,9 hPa 0,0 l/m 5,4 km/h (2 Bft) W-SW 250 0 min
30.10.2017 08:15 5,0 C 5,1 C 93 % 90 % 1022,9 hPa 0,0 l/m 5,4 km/h (2 Bft) W 270 2 min
30.10.2017 08:20 5,1 C 5,1 C 93 % 90 % 1022,9 hPa 0,0 l/m 4,8 km/h (1 Bft) W 265 5 min
30.10.2017 08:25 5,2 C 5,1 C 93 % 90 % 1022,9 hPa 0,0 l/m 5,4 km/h (2 Bft) W 270 3 min
30.10.2017 08:30 5,3 C 5,3 C 92 % 90 % 1022,9 hPa 0,0 l/m 4,2 km/h (1 Bft) SW 225 8 min
30.10.2017 08:35 5,5 C 5,3 C 92 % 90 % 1022,9 hPa 0,0 l/m 6,7 km/h (2 Bft) W 280 5 min
30.10.2017 08:40 5,6 C 5,5 C 92 % 90 % 1023,9 hPa 0,0 l/m 13,3 km/h (3 Bft) W-SW 255 5 min
30.10.2017 08:45 5,9 C 5,6 C 90 % 90 % 1023,9 hPa 0,0 l/m 12,1 km/h (2 Bft) W-NW 285 5 min
30.10.2017 08:50 6,0 C 5,8 C 90 % 89 % 1023,9 hPa 0,0 l/m 13,3 km/h (3 Bft) W-NW 285 2 min
30.10.2017 08:55 6,3 C 5,9 C 89 % 88 % 1023,9 hPa 0,0 l/m 12,1 km/h (2 Bft) NW 315 7 min
30.10.2017 09:00 6,5 C 6,1 C 88 % 88 % 1023,9 hPa 0,0 l/m 11,5 km/h (2 Bft) W-NW 290 6 min
30.10.2017 09:05 6,7 C 6,3 C 88 % 88 % 1023,9 hPa 0,0 l/m 10,9 km/h (2 Bft) W 270 4 min
30.10.2017 09:10 6,9 C 6,4 C 87 % 87 % 1023,9 hPa 0,0 l/m 10,9 km/h (2 Bft) W-NW 290 6 min
30.10.2017 09:15 7,1 C 6,7 C 86 % 87 % 1023,9 hPa 0,0 l/m 10,9 km/h (2 Bft) W-SW 250 4 min
30.10.2017 09:20 7,1 C 6,7 C 87 % 87 % 1023,9 hPa 0,0 l/m 13,9 km/h (3 Bft) W-NW 290 3 min
30.10.2017 09:25 7,4 C 6,9 C 86 % 86 % 1023,9 hPa 0,0 l/m 10,9 km/h (2 Bft) NW 310 6 min
30.10.2017 09:30 7,6 C 7,1 C 85 % 85 % 1023,9 hPa 0,0 l/m 9,7 km/h (2 Bft) W-NW 300 4 min
30.10.2017 09:35 7,9 C 7,4 C 83 % 84 % 1023,9 hPa 0,0 l/m 10,9 km/h (2 Bft) W 280 4 min
30.10.2017 09:40 8,1 C 7,6 C 82 % 83 % 1023,9 hPa 0,0 l/m 18,2 km/h (3 Bft) NW 325 1 min
30.10.2017 09:45 8,0 C 7,6 C 81 % 82 % 1023,9 hPa 0,0 l/m 11,5 km/h (2 Bft) NW 315 6 min
30.10.2017 09:50 8,1 C 7,7 C 82 % 82 % 1023,9 hPa 0,0 l/m 9,7 km/h (2 Bft) W 280 4 min
30.10.2017 09:55 8,2 C 7,9 C 82 % 82 % 1024,9 hPa 0,0 l/m 10,3 km/h (2 Bft) W-NW 290 0 min
30.10.2017 10:00 8,2 C 8,0 C 81 % 81 % 1024,9 hPa 0,0 l/m 15,1 km/h (3 Bft) W 280 0 min
30.10.2017 10:05 8,2 C 8,2 C 81 % 80 % 1024,9 hPa 0,0 l/m 15,1 km/h (3 Bft) W 280 0 min
30.10.2017 10:10 8,2 C 8,3 C 81 % 80 % 1023,8 hPa 0,0 l/m 15,1 km/h (3 Bft) W 280 0 min
30.10.2017 10:15 8,2 C 8,5 C 81 % 80 % 1023,8 hPa 0,0 l/m 15,1 km/h (3 Bft) W 280 0 min
30.10.2017 10:20 8,2 C 8,6 C 81 % 80 % 1023,8 hPa 0,0 l/m 15,1 km/h (3 Bft) W 280 0 min
30.10.2017 10:25 10,1 C 8,7 C 75 % 80 % 1023,8 hPa 0,0 l/m 8,5 km/h (2 Bft) W-SW 240 0 min
30.10.2017 10:30 9,8 C 9,0 C 76 % 79 % 1023,8 hPa 0,0 l/m 13,3 km/h (3 Bft) W-NW 285 2 min
30.10.2017 10:35 9,9 C 9,2 C 76 % 78 % 1023,8 hPa 0,0 l/m 9,7 km/h (2 Bft) W-NW 285 2 min
30.10.2017 10:40 9,8 C 9,2 C 73 % 75 % 1024,8 hPa 0,0 l/m 13,3 km/h (3 Bft) N 355 6 min
30.10.2017 10:45 9,8 C 9,2 C 74 % 76 % 1024,8 hPa 0,0 l/m 13,3 km/h (3 Bft) W 265 4 min
30.10.2017 10:50 9,9 C 9,3 C 72 % 75 % 1024,8 hPa 0,0 l/m 13,3 km/h (3 Bft) W 280 5 min
30.10.2017 10:55 10,0 C 9,5 C 72 % 74 % 1024,8 hPa 0,0 l/m 12,7 km/h (3 Bft) NW 310 5 min
30.10.2017 11:00 10,3 C 9,5 C 73 % 76 % 1024,8 hPa 0,0 l/m 15,1 km/h (3 Bft) W-NW 285 5 min
30.10.2017 11:05 10,4 C 9,8 C 73 % 76 % 1024,8 hPa 0,0 l/m 12,1 km/h (2 Bft) N-NW 330 5 min
30.10.2017 11:10 10,4 C 9,8 C 72 % 74 % 1023,8 hPa 0,0 l/m 9,1 km/h (2 Bft) NW 305 6 min
30.10.2017 11:15 10,3 C 9,8 C 72 % 75 % 1023,8 hPa 0,0 l/m 20,0 km/h (4 Bft) W-NW 285 2 min
30.10.2017 11:20 10,1 C 9,8 C 72 % 74 % 1023,8 hPa 0,0 l/m 18,2 km/h (3 Bft) W-NW 290 7 min
30.10.2017 11:25 10,4 C 9,9 C 71 % 74 % 1024,8 hPa 0,0 l/m 12,1 km/h (2 Bft) W 265 3 min
30.10.2017 11:30 10,4 C 9,9 C 71 % 73 % 1024,8 hPa 0,0 l/m 19,4 km/h (3 Bft) N-NW 330 7 min
30.10.2017 11:35 10,4 C 9,9 C 71 % 74 % 1024,8 hPa 0,0 l/m 11,5 km/h (2 Bft) W-NW 300 3 min
30.10.2017 11:40 10,5 C 10,0 C 72 % 73 % 1024,8 hPa 0,0 l/m 16,3 km/h (3 Bft) W-NW 290 6 min
30.10.2017 11:45 10,2 C 10,0 C 71 % 73 % 1024,8 hPa 0,0 l/m 20,0 km/h (4 Bft) W-SW 255 4 min
30.10.2017 11:50 10,4 C 10,0 C 70 % 72 % 1024,8 hPa 0,0 l/m 20,6 km/h (4 Bft) W-NW 285 6 min
30.10.2017 11:55 10,4 C 10,0 C 70 % 72 % 1024,8 hPa 0,0 l/m 16,3 km/h (3 Bft) W 270 4 min
30.10.2017 12:00 10,7 C 10,2 C 70 % 73 % 1024,8 hPa 0,0 l/m 12,7 km/h (3 Bft) W 260 6 min
30.10.2017 12:05 10,5 C 10,3 C 70 % 74 % 1024,8 hPa 0,0 l/m 18,2 km/h (3 Bft) W 280 7 min
30.10.2017 12:10 10,6 C 10,3 C 70 % 73 % 1024,8 hPa 0,0 l/m 13,9 km/h (3 Bft) W-NW 300 2 min
30.10.2017 12:15 10,6 C 10,4 C 71 % 71 % 1024,8 hPa 0,0 l/m 14,5 km/h (3 Bft) N 10 8 min
30.10.2017 12:20 10,4 C 10,4 C 69 % 71 % 1024,8 hPa 0,0 l/m 13,3 km/h (3 Bft) W-NW 285 2 min
30.10.2017 12:25 10,1 C 10,2 C 69 % 71 % 1024,8 hPa 0,0 l/m 22,4 km/h (4 Bft) NW 320 6 min
30.10.2017 12:30 10,5 C 10,2 C 69 % 70 % 1024,8 hPa 0,0 l/m 8,5 km/h (2 Bft) W-SW 255 5 min
30.10.2017 12:35 10,3 C 10,2 C 69 % 70 % 1024,8 hPa 0,0 l/m 12,1 km/h (2 Bft) W-NW 300 5 min
30.10.2017 12:40 10,6 C 10,3 C 68 % 70 % 1024,8 hPa 0,0 l/m 16,3 km/h (3 Bft) W-NW 285 5 min
30.10.2017 12:45 10,7 C 10,5 C 69 % 71 % 1024,8 hPa 0,0 l/m 10,3 km/h (2 Bft) SW 230 5 min
30.10.2017 12:50 10,5 C 10,5 C 68 % 70 % 1024,8 hPa 0,0 l/m 20,6 km/h (4 Bft) NW 325 5 min
30.10.2017 12:55 10,6 C 10,4 C 68 % 69 % 1024,8 hPa 0,0 l/m 15,1 km/h (3 Bft) W-NW 285 6 min
30.10.2017 13:00 10,6 C 10,6 C 67 % 69 % 1024,8 hPa 0,0 l/m 20,0 km/h (4 Bft) N-NW 335 5 min
30.10.2017 13:05 10,5 C 10,5 C 68 % 69 % 1024,8 hPa 0,0 l/m 12,1 km/h (2 Bft) NW 305 5 min
30.10.2017 13:10 10,6 C 10,5 C 67 % 69 % 1024,8 hPa 0,0 l/m 20,6 km/h (4 Bft) W 275 5 min
30.10.2017 13:15 10,8 C 10,6 C 68 % 69 % 1024,8 hPa 0,0 l/m 11,5 km/h (2 Bft) NW 305 5 min
30.10.2017 13:20 11,1 C 10,7 C 65 % 67 % 1024,8 hPa 0,0 l/m 12,7 km/h (3 Bft) W 260 5 min
30.10.2017 13:25 11,3 C 10,9 C 64 % 68 % 1024,8 hPa 0,0 l/m 12,1 km/h (2 Bft) W 280 4 min
30.10.2017 13:30 11,1 C 11,0 C 64 % 66 % 1024,8 hPa 0,0 l/m 21,2 km/h (4 Bft) W 265 6 min
30.10.2017 13:35 10,8 C 10,8 C 65 % 66 % 1024,8 hPa 0,0 l/m 21,2 km/h (4 Bft) SW 225 4 min
30.10.2017 13:40 11,2 C 11,0 C 66 % 68 % 1024,8 hPa 0,0 l/m 15,7 km/h (3 Bft) NW 310 6 min
30.10.2017 13:45 11,4 C 11,1 C 63 % 66 % 1024,8 hPa 0,0 l/m 17,6 km/h (3 Bft) N 0 5 min
30.10.2017 13:50 11,3 C 11,2 C 64 % 67 % 1024,8 hPa 0,0 l/m 13,3 km/h (3 Bft) W 265 4 min
30.10.2017 13:55 11,3 C 11,1 C 64 % 67 % 1024,8 hPa 0,0 l/m 6,7 km/h (2 Bft) W-NW 300 5 min
30.10.2017 14:00 11,7 C 11,3 C 64 % 68 % 1024,8 hPa 0,0 l/m 12,1 km/h (2 Bft) N-NW 340 5 min
30.10.2017 14:05 11,6 C 11,3 C 63 % 66 % 1024,8 hPa 0,0 l/m 16,3 km/h (3 Bft) W 260 6 min
30.10.2017 14:10 11,4 C 11,3 C 65 % 66 % 1024,8 hPa 0,0 l/m 15,7 km/h (3 Bft) W 260 5 min
30.10.2017 14:15 11,6 C 11,2 C 64 % 67 % 1024,8 hPa 0,0 l/m 20,6 km/h (4 Bft) W-NW 285 5 min
30.10.2017 14:20 11,5 C 11,4 C 62 % 67 % 1024,8 hPa 0,0 l/m 15,7 km/h (3 Bft) W-NW 285 5 min
30.10.2017 14:25 11,5 C 11,4 C 61 % 64 % 1024,8 hPa 0,0 l/m 23,6 km/h (4 Bft) W 275 5 min
30.10.2017 14:30 11,1 C 11,3 C 62 % 64 % 1024,8 hPa 0,0 l/m 25,4 km/h (4 Bft) W-NW 300 5 min
30.10.2017 14:35 10,8 C 11,0 C 65 % 66 % 1024,8 hPa 0,0 l/m 16,9 km/h (3 Bft) NW 305 5 min
30.10.2017 14:40 10,7 C 10,9 C 63 % 64 % 1024,8 hPa 0,0 l/m 16,9 km/h (3 Bft) NW 320 5 min
30.10.2017 14:45 10,9 C 10,9 C 65 % 66 % 1024,8 hPa 0,0 l/m 18,2 km/h (3 Bft) W-SW 250 5 min
30.10.2017 14:50 11,3 C 11,0 C 64 % 68 % 1024,8 hPa 0,0 l/m 18,2 km/h (3 Bft) W-NW 285 5 min
30.10.2017 14:55 11,5 C 11,0 C 63 % 66 % 1024,8 hPa 0,0 l/m 13,9 km/h (3 Bft) W 270 5 min
30.10.2017 15:00 11,5 C 11,0 C 61 % 64 % 1024,8 hPa 0,0 l/m 13,3 km/h (3 Bft) W 270 6 min
30.10.2017 15:05 11,4 C 11,2 C 63 % 66 % 1024,8 hPa 0,0 l/m 15,1 km/h (3 Bft) W 275 4 min
30.10.2017 15:10 11,6 C 11,2 C 64 % 66 % 1024,8 hPa 0,0 l/m 16,3 km/h (3 Bft) W 270 5 min
30.10.2017 15:15 11,4 C 11,2 C 63 % 66 % 1024,8 hPa 0,0 l/m 9,7 km/h (2 Bft) W 270 5 min
30.10.2017 15:20 11,3 C 11,2 C 64 % 66 % 1024,8 hPa 0,0 l/m 10,3 km/h (2 Bft) W 275 5 min
30.10.2017 15:25 11,5 C 11,1 C 64 % 66 % 1024,8 hPa 0,0 l/m 9,7 km/h (2 Bft) NW 305 5 min
30.10.2017 15:30 11,6 C 11,2 C 64 % 66 % 1024,8 hPa 0,0 l/m 18,8 km/h (3 Bft) W 270 3 min
30.10.2017 15:35 11,3 C 11,2 C 65 % 67 % 1024,8 hPa 0,0 l/m 20,0 km/h (4 Bft) W-SW 255 6 min
30.10.2017 15:40 10,9 C 11,0 C 65 % 66 % 1024,8 hPa 0,0 l/m 22,4 km/h (4 Bft) W-NW 300 4 min
30.10.2017 15:45 10,6 C 10,9 C 65 % 66 % 1024,8 hPa 0,0 l/m 27,1 km/h (5 Bft) W 270 6 min
30.10.2017 15:50 10,5 C 10,7 C 65 % 67 % 1024,8 hPa 0,0 l/m 21,8 km/h (4 Bft) W 270 4 min
30.10.2017 15:55 10,4 C 10,6 C 67 % 68 % 1024,8 hPa 0,0 l/m 23,0 km/h (4 Bft) W-NW 290 6 min
30.10.2017 16:00 10,4 C 10,5 C 67 % 68 % 1024,8 hPa 0,0 l/m 16,9 km/h (3 Bft) W-SW 250 5 min
30.10.2017 16:05 10,4 C 10,5 C 67 % 69 % 1024,8 hPa 0,0 l/m 18,8 km/h (3 Bft) W 280 5 min
30.10.2017 16:10 10,6 C 10,5 C 69 % 71 % 1024,8 hPa 0,0 l/m 13,3 km/h (3 Bft) W 270 5 min
30.10.2017 16:15 10,6 C 10,6 C 67 % 70 % 1024,8 hPa 0,0 l/m 19,4 km/h (3 Bft) SW 220 5 min
30.10.2017 16:20 10,7 C 10,6 C 67 % 71 % 1024,8 hPa 0,0 l/m 22,4 km/h (4 Bft) W 280 5 min
30.10.2017 16:25 10,5 C 10,5 C 68 % 69 % 1024,8 hPa 0,0 l/m 20,0 km/h (4 Bft) W-SW 245 4 min
30.10.2017 16:30 10,2 C 10,3 C 67 % 68 % 1024,8 hPa 0,0 l/m 21,8 km/h (4 Bft) W 265 5 min
30.10.2017 16:35 10,0 C 10,2 C 68 % 69 % 1024,8 hPa 0,0 l/m 20,0 km/h (4 Bft) SW 235 4 min
30.10.2017 16:40 10,1 C 10,2 C 67 % 68 % 1024,8 hPa 0,0 l/m 20,6 km/h (4 Bft) W 265 6 min
30.10.2017 16:45 10,1 C 10,2 C 67 % 69 % 1024,8 hPa 0,0 l/m 19,4 km/h (3 Bft) W-SW 245 5 min
30.10.2017 16:50 10,1 C 10,2 C 67 % 69 % 1024,8 hPa 0,0 l/m 18,2 km/h (3 Bft) W 270 4 min
30.10.2017 16:55 9,9 C 10,0 C 69 % 70 % 1024,8 hPa 0,0 l/m 19,4 km/h (3 Bft) W 270 0 min
30.10.2017 17:00 9,8 C 10,0 C 69 % 70 % 1024,8 hPa 0,0 l/m 18,2 km/h (3 Bft) SW 220 0 min
30.10.2017 17:05 9,7 C 9,8 C 70 % 71 % 1024,8 hPa 0,0 l/m 12,7 km/h (3 Bft) W-SW 255 0 min
30.10.2017 17:10 9,6 C 9,8 C 70 % 71 % 1024,8 hPa 0,0 l/m 9,7 km/h (2 Bft) W 265 0 min
30.10.2017 17:15 9,5 C 9,7 C 71 % 72 % 1024,8 hPa 0,0 l/m 10,9 km/h (2 Bft) W 275 0 min
30.10.2017 17:20 9,5 C 9,7 C 71 % 72 % 1024,8 hPa 0,0 l/m 10,3 km/h (2 Bft) W 265 0 min
30.10.2017 17:25 9,5 C 9,6 C 71 % 72 % 1024,8 hPa 0,0 l/m 11,5 km/h (2 Bft) W 270 0 min
30.10.2017 17:30 9,5 C 9,6 C 71 % 72 % 1024,8 hPa 0,0 l/m 12,1 km/h (2 Bft) W 270 0 min
30.10.2017 17:35 9,4 C 9,5 C 71 % 72 % 1024,8 hPa 0,0 l/m 9,1 km/h (2 Bft) W-SW 255 0 min
30.10.2017 17:40 9,3 C 9,4 C 72 % 73 % 1025,8 hPa 0,0 l/m 13,3 km/h (3 Bft) S-SO 160 0 min
30.10.2017 17:45 9,4 C 9,5 C 71 % 72 % 1025,8 hPa 0,0 l/m 11,5 km/h (2 Bft) W-NW 290 0 min
30.10.2017 17:50 9,3 C 9,4 C 72 % 73 % 1025,8 hPa 0,0 l/m 11,5 km/h (2 Bft) W 260 0 min
30.10.2017 17:55 9,2 C 9,3 C 73 % 74 % 1025,8 hPa 0,0 l/m 12,7 km/h (3 Bft) W-SW 245 0 min
30.10.2017 18:00 9,1 C 9,2 C 73 % 73 % 1025,8 hPa 0,0 l/m 10,3 km/h (2 Bft) W-SW 255 0 min
30.10.2017 18:05 9,0 C 9,2 C 73 % 74 % 1025,8 hPa 0,0 l/m 10,9 km/h (2 Bft) W-NW 285 0 min
30.10.2017 18:10 8,8 C 8,9 C 74 % 74 % 1024,8 hPa 0,0 l/m 9,7 km/h (2 Bft) W 265 0 min
30.10.2017 18:15 8,6 C 8,8 C 75 % 75 % 1024,8 hPa 0,0 l/m 9,7 km/h (2 Bft) SW 215 0 min
30.10.2017 18:20 8,3 C 8,6 C 76 % 76 % 1024,8 hPa 0,0 l/m 8,5 km/h (2 Bft) W-SW 255 0 min
30.10.2017 18:25 8,2 C 8,4 C 76 % 76 % 1024,8 hPa 0,0 l/m 9,1 km/h (2 Bft) W 265 0 min
30.10.2017 18:30 8,2 C 8,3 C 76 % 76 % 1024,8 hPa 0,0 l/m 9,7 km/h (2 Bft) W 275 0 min
30.10.2017 18:35 8,1 C 8,2 C 77 % 77 % 1024,9 hPa 0,0 l/m 9,7 km/h (2 Bft) W 260 0 min
30.10.2017 18:40 7,8 C 8,0 C 78 % 77 % 1024,9 hPa 0,0 l/m 8,5 km/h (2 Bft) SW 225 0 min
30.10.2017 18:45 7,7 C 7,8 C 79 % 78 % 1024,9 hPa 0,0 l/m 9,7 km/h (2 Bft) W 270 0 min
30.10.2017 18:50 7,6 C 7,7 C 79 % 78 % 1024,9 hPa 0,0 l/m 9,7 km/h (2 Bft) W 265 0 min
30.10.2017 18:55 7,4 C 7,6 C 80 % 79 % 1025,9 hPa 0,0 l/m 11,5 km/h (2 Bft) W-SW 250 0 min
30.10.2017 19:00 7,4 C 7,4 C 80 % 79 % 1025,9 hPa 0,0 l/m 10,3 km/h (2 Bft) W 265 0 min
30.10.2017 19:05 7,5 C 7,4 C 80 % 79 % 1025,9 hPa 0,0 l/m 12,7 km/h (3 Bft) W 280 0 min
30.10.2017 19:10 7,4 C 7,4 C 80 % 79 % 1025,9 hPa 0,0 l/m 11,5 km/h (2 Bft) W 260 0 min
30.10.2017 19:15 7,4 C 7,3 C 80 % 80 % 1025,9 hPa 0,0 l/m 10,9 km/h (2 Bft) W-SW 255 0 min
30.10.2017 19:20 7,3 C 7,3 C 80 % 80 % 1025,9 hPa 0,0 l/m 10,3 km/h (2 Bft) W 280 0 min
30.10.2017 19:25 7,2 C 7,2 C 81 % 80 % 1025,9 hPa 0,0 l/m 9,7 km/h (2 Bft) W 275 0 min
30.10.2017 19:30 7,1 C 7,1 C 81 % 80 % 1025,9 hPa 0,0 l/m 6,7 km/h (2 Bft) W 260 0 min
30.10.2017 19:35 7,1 C 7,1 C 81 % 80 % 1025,9 hPa 0,0 l/m 6,7 km/h (2 Bft) W 275 0 min
30.10.2017 19:40 6,9 C 7,1 C 81 % 80 % 1025,9 hPa 0,0 l/m 0,6 km/h (0 Bft) W-SW 255 0 min
30.10.2017 19:45 6,9 C 7,0 C 82 % 80 % 1025,9 hPa 0,0 l/m 6,7 km/h (2 Bft) W 270 0 min
30.10.2017 19:50 6,9 C 7,0 C 82 % 81 % 1025,9 hPa 0,0 l/m 8,5 km/h (2 Bft) W 260 0 min
30.10.2017 19:55 6,7 C 6,9 C 83 % 81 % 1025,9 hPa 0,0 l/m 3,6 km/h (1 Bft) W-SW 250 0 min
30.10.2017 20:00 6,6 C 6,8 C 83 % 81 % 1025,9 hPa 0,0 l/m 6,7 km/h (2 Bft) W-NW 295 0 min
30.10.2017 20:05 6,6 C 6,7 C 83 % 81 % 1025,9 hPa 0,0 l/m 7,9 km/h (2 Bft) W 270 0 min
30.10.2017 20:10 6,6 C 6,7 C 83 % 82 % 1025,9 hPa 0,0 l/m 10,3 km/h (2 Bft) W 260 0 min
30.10.2017 20:15 6,7 C 6,7 C 83 % 82 % 1025,9 hPa 0,0 l/m 10,9 km/h (2 Bft) W-SW 255 0 min
30.10.2017 20:20 6,6 C 6,6 C 83 % 82 % 1025,9 hPa 0,0 l/m 4,8 km/h (1 Bft) W 275 0 min
30.10.2017 20:25 6,4 C 6,6 C 84 % 82 % 1026,9 hPa 0,0 l/m 0,0 km/h (0 Bft) W-SW 240 0 min
30.10.2017 20:30 6,4 C 6,5 C 84 % 82 % 1026,9 hPa 0,0 l/m 0,0 km/h (0 Bft) W-NW 285 0 min
30.10.2017 20:35 6,4 C 6,5 C 84 % 82 % 1026,9 hPa 0,0 l/m 0,0 km/h (0 Bft) W 260 0 min
30.10.2017 20:40 6,3 C 6,4 C 84 % 82 % 1025,9 hPa 0,0 l/m 0,0 km/h (0 Bft) W-SW 240 0 min
30.10.2017 20:45 6,2 C 6,3 C 84 % 82 % 1025,9 hPa 0,0 l/m 0,0 km/h (0 Bft) O-SO 110 0 min
30.10.2017 20:50 6,2 C 6,3 C 84 % 83 % 1025,9 hPa 0,0 l/m 5,4 km/h (2 Bft) W 275 0 min
30.10.2017 20:55 6,1 C 6,3 C 85 % 83 % 1025,9 hPa 0,0 l/m 0,0 km/h (0 Bft) W 260 0 min
30.10.2017 21:00 6,1 C 6,2 C 85 % 83 % 1025,9 hPa 0,0 l/m 0,0 km/h (0 Bft) W-SW 240 0 min
30.10.2017 21:05 5,9 C 6,1 C 86 % 84 % 1025,9 hPa 0,0 l/m 0,0 km/h (0 Bft) W-SW 245 0 min
30.10.2017 21:10 5,8 C 6,1 C 86 % 84 % 1025,9 hPa 0,0 l/m 0,0 km/h (0 Bft) W 270 0 min
30.10.2017 21:15 5,9 C 6,1 C 86 % 84 % 1025,9 hPa 0,0 l/m 0,0 km/h (0 Bft) W 265 0 min
30.10.2017 21:20 6,0 C 6,1 C 86 % 84 % 1025,9 hPa 0,0 l/m 0,0 km/h (0 Bft) W 265 0 min
30.10.2017 21:25 6,0 C 6,0 C 86 % 84 % 1026,9 hPa 0,0 l/m 0,0 km/h (0 Bft) W 275 0 min
30.10.2017 21:30 5,9 C 6,0 C 86 % 84 % 1026,9 hPa 0,0 l/m 0,0 km/h (0 Bft) W 265 0 min
30.10.2017 21:35 5,8 C 6,0 C 87 % 84 % 1026,9 hPa 0,0 l/m 0,0 km/h (0 Bft) W-SW 250 0 min
30.10.2017 21:40 5,9 C 5,9 C 87 % 84 % 1026,9 hPa 0,0 l/m 0,0 km/h (0 Bft) W-NW 295 0 min
30.10.2017 21:45 5,6 C 5,8 C 87 % 84 % 1026,9 hPa 0,0 l/m 0,0 km/h (0 Bft) W-SW 240 0 min
30.10.2017 21:50 5,6 C 5,7 C 88 % 83 % 1026,9 hPa 0,0 l/m 0,0 km/h (0 Bft) W 270 0 min
30.10.2017 21:55 5,5 C 5,6 C 88 % 84 % 1026,9 hPa 0,0 l/m 0,0 km/h (0 Bft) W 265 0 min
30.10.2017 22:00 5,4 C 5,5 C 89 % 84 % 1026,9 hPa 0,0 l/m 0,0 km/h (0 Bft) SW 225 0 min
30.10.2017 22:05 5,4 C 5,6 C 89 % 86 % 1026,9 hPa 0,0 l/m 0,0 km/h (0 Bft) W-SW 255 0 min
30.10.2017 22:10 5,4 C 5,5 C 89 % 86 % 1026,9 hPa 0,0 l/m 0,0 km/h (0 Bft) W-SW 240 0 min
30.10.2017 22:15 5,6 C 5,6 C 89 % 87 % 1026,9 hPa 0,0 l/m 0,0 km/h (0 Bft) W-SW 250 0 min
30.10.2017 22:20 5,6 C 5,6 C 89 % 86 % 1026,9 hPa 0,0 l/m 0,0 km/h (0 Bft) W-SW 240 0 min
30.10.2017 22:25 5,5 C 5,5 C 90 % 86 % 1026,9 hPa 0,0 l/m 0,0 km/h (0 Bft) S-SW 195 0 min
30.10.2017 22:30 5,5 C 5,4 C 90 % 87 % 1026,9 hPa 0,0 l/m 0,0 km/h (0 Bft) SW 220 0 min
30.10.2017 22:35 5,5 C 5,5 C 90 % 87 % 1026,9 hPa 0,0 l/m 0,0 km/h (0 Bft) W 270 0 min
30.10.2017 22:40 5,4 C 5,5 C 91 % 87 % 1025,9 hPa 0,0 l/m 0,0 km/h (0 Bft) W-SW 255 0 min
30.10.2017 22:45 5,5 C 5,5 C 91 % 88 % 1025,9 hPa 0,0 l/m 0,0 km/h (0 Bft) W 270 0 min
30.10.2017 22:50 5,5 C 5,5 C 91 % 88 % 1025,9 hPa 0,0 l/m 0,0 km/h (0 Bft) W 265 0 min
30.10.2017 22:55 5,6 C 5,5 C 91 % 88 % 1026,9 hPa 0,0 l/m 0,0 km/h (0 Bft) W 265 0 min
30.10.2017 23:00 5,5 C 5,6 C 91 % 88 % 1026,9 hPa 0,0 l/m 0,0 km/h (0 Bft) W 270 0 min
30.10.2017 23:05 5,5 C 5,6 C 91 % 88 % 1026,9 hPa 0,0 l/m 0,0 km/h (0 Bft) W 265 0 min
30.10.2017 23:10 5,6 C 5,6 C 92 % 88 % 1026,9 hPa 0,0 l/m 0,0 km/h (0 Bft) W-SW 250 0 min
30.10.2017 23:15 5,7 C 5,7 C 92 % 88 % 1026,9 hPa 0,0 l/m 0,0 km/h (0 Bft) W 260 0 min
30.10.2017 23:20 5,8 C 5,8 C 92 % 89 % 1026,9 hPa 0,0 l/m 0,0 km/h (0 Bft) W-SW 240 0 min
30.10.2017 23:25 5,9 C 5,8 C 92 % 89 % 1025,9 hPa 0,0 l/m 0,0 km/h (0 Bft) W-SW 240 0 min
30.10.2017 23:30 5,9 C 5,9 C 92 % 89 % 1025,9 hPa 0,0 l/m 0,0 km/h (0 Bft) S-SW 205 0 min
30.10.2017 23:35 6,0 C 6,0 C 93 % 89 % 1025,9 hPa 0,0 l/m 0,0 km/h (0 Bft) W 270 0 min
30.10.2017 23:40 6,1 C 6,1 C 93 % 90 % 1026,9 hPa 0,0 l/m 0,0 km/h (0 Bft) W-SW 250 0 min
30.10.2017 23:45 6,1 C 6,2 C 93 % 90 % 1026,9 hPa 0,0 l/m 0,0 km/h (0 Bft) W-SW 255 0 min
30.10.2017 23:50 6,2 C 6,2 C 93 % 90 % 1026,9 hPa 0,0 l/m 0,0 km/h (0 Bft) W-NW 290 0 min
30.10.2017 23:55 6,2 C 6,3 C 92 % 90 % 1025,9 hPa 0,0 l/m 0,0 km/h (0 Bft) W 260 0 min
_ Min-Zeit 07:10 07:10 14:25 14:25 00:50 - 20:25 - - -
Minimum _ 4,6 C 4,7 C 61 % 64 % 1019,9 hPa - 0,0 km/h (0 Bft) - - -
_ Max-Zeit 14:00 14:20 07:05 07:15 22:30 00:00 15:45 - - 08:30
Maximum _ 11,7 C 11,4 C 94 % 91 % 1026,9 hPa 0,0 l/m 27,1 km/h
W (5 Bft)
- - 8 min
Durchschnitt _ 7,5 C 7,4 C 82 % 81 % 1023,8 hPa #0,0 l/m 9,6 km/h (2 Bft) W - #7:46 h